Johnstown, PA

10:16 AM EDT on March 23, 2017 (GMT -0400)
Johnstown-Cambria County

Weather History for KJST - October, 2014

Change the Weather History Date:

Sunday, October 5, 2014

  Actual Average Record
Temperature  
Mean Temperature 42 °F 53 °F  
Max Temperature 48 °F 62 °F 88 °F (1922)
Min Temperature 36 °F 44 °F 28 °F (1943)
Degree Days  
Heating Degree Days 23 12  
Month to date heating degree days 51 59  
Since 1 July heating degree days 284 277  
Cooling Degree Days 0 0  
Month to date cooling degree days 0 0  
Year to date cooling degree days 341 382  
Moisture  
Dew Point 30 °F    
Average Humidity 63    
Maximum Humidity 76    
Minimum Humidity 49    
Precipitation  
Precipitation 0.00 in 0.11 in 1.33 in (1903)
Month to date precipitation 0.50 0.56  
Year to date precipitation 27.60 24.85  
Sea Level Pressure  
Sea Level Pressure 29.86 in    
Wind  
Wind Speed 10 mph (SW)    
Max Wind Speed 23 mph    
Max Gust Speed 31 mph    
Visibility 10 miles    
Events      
T = Trace of Precipitation, MM = Missing Value Source: NWS Daily Summary

Daily Weather History Graph

Daily Weather History Graph

Search for Another Location

Airport or City:

Trip Planner

Search our weather history database for the weather conditions in past years. The results will help you decide how hot, cold, wet, or windy it might be!

Date:

Astronomy

Oct. 05, 2014 Rise Set
Actual Time 7:15 AM EDT 6:51 PM EDT
Civil Twilight 6:48 AM EDT 7:18 PM EDT
Nautical Twilight 6:17 AM EDT 7:49 PM EDT
Astronomical Twilight 5:45 AM EDT 8:21 PM EDT
Moon 5:07 PM EDT (10/5) 3:50 AM EDT (10/5)
Length of Visible Light 12h 29m
Length of Day
11h 35m
Waxing Gibbous, 89% of the Moon is Illuminated
Oct 5
Waxing Gibbous
Oct 8
Full
Oct 15
Last Quarter
Oct 23
New
Oct 30
First Quarter

Hourly Weather History & Observations

Time (EDT) Temp. Windchill Dew Point Humidity Pressure Visibility Wind Dir Wind Speed Gust Speed Precip Events Conditions
12:54 AM 37.0 °F 28.9 °F 28.9 °F 73% 29.78 in 10.0 mi WSW 12.7 mph 21.9 mph N/A   Overcast
1:20 AM 37.9 °F 29.6 °F 28.9 °F 70% 29.75 in 10.0 mi WSW 13.8 mph 20.7 mph N/A   Overcast
1:54 AM 37.0 °F 28.9 °F 28.9 °F 73% 29.80 in 10.0 mi West 12.7 mph 23.0 mph N/A   Mostly Cloudy
2:22 AM 37.0 °F 27.7 °F 28.9 °F 73% 29.76 in 10.0 mi West 16.1 mph 25.3 mph N/A   Scattered Clouds
2:54 AM 37.0 °F 28.1 °F 28.9 °F 73% 29.80 in 10.0 mi West 15.0 mph - N/A   Clear
3:32 AM 37.0 °F 28.1 °F 30.0 °F 76% 29.75 in 10.0 mi West 15.0 mph 21.9 mph N/A   Overcast
3:54 AM 37.0 °F 27.7 °F 30.0 °F 76% 29.79 in 10.0 mi WSW 16.1 mph 20.7 mph N/A   Overcast
4:54 AM 37.0 °F 28.5 °F 30.9 °F 79% 29.81 in 10.0 mi WSW 13.8 mph 20.7 mph N/A   Overcast
5:54 AM 37.0 °F 31.0 °F 30.9 °F 79% 29.84 in 10.0 mi SW 8.1 mph - N/A   Overcast
6:54 AM 37.0 °F 29.8 °F 30.9 °F 79% 29.86 in 10.0 mi SW 10.4 mph - N/A   Mostly Cloudy
7:06 AM 36.0 °F 28.5 °F 30.0 °F 79% 29.82 in 10.0 mi SW 10.4 mph - N/A   Scattered Clouds
7:54 AM 37.0 °F 30.4 °F 30.9 °F 79% 29.88 in 10.0 mi WSW 9.2 mph - N/A   Clear
8:54 AM 37.9 °F 31.5 °F 30.9 °F 76% 29.89 in 10.0 mi WSW 9.2 mph - N/A   Mostly Cloudy
9:54 AM 42.1 °F 34.5 °F 28.9 °F 60% 29.90 in 10.0 mi West 15.0 mph 24.2 mph N/A   Partly Cloudy
10:54 AM 43.0 °F 35.7 °F 28.9 °F 58% 29.90 in 10.0 mi West 15.0 mph 21.9 mph N/A   Mostly Cloudy
11:54 AM 46.0 °F 39.9 °F 28.0 °F 50% 29.90 in 10.0 mi West 13.8 mph 26.5 mph N/A   Overcast
12:54 PM 44.1 °F 37.4 °F 30.0 °F 58% 29.91 in 10.0 mi WSW 13.8 mph 21.9 mph N/A   Overcast
1:54 PM 45.0 °F 39.7 °F 30.9 °F 58% 29.88 in 10.0 mi WSW 10.4 mph 21.9 mph N/A   Overcast
2:54 PM 45.0 °F 38.2 °F 30.0 °F 56% 29.88 in 10.0 mi WSW 15.0 mph 20.7 mph N/A   Overcast
3:54 PM 45.0 °F 40.1 °F 30.9 °F 58% 29.89 in 10.0 mi West 9.2 mph - N/A   Overcast
4:54 PM 46.0 °F 41.4 °F 28.9 °F 51% 29.89 in 10.0 mi SSW 9.2 mph - N/A   Mostly Cloudy
5:54 PM 46.0 °F 42.5 °F 30.0 °F 54% 29.90 in 10.0 mi SSW 6.9 mph - N/A   Overcast
6:54 PM 44.1 °F 41.5 °F 30.0 °F 58% 29.91 in 10.0 mi SSW 4.6 mph - N/A   Mostly Cloudy
7:54 PM 42.1 °F 39.2 °F 30.0 °F 62% 29.92 in 10.0 mi South 4.6 mph - N/A   Mostly Cloudy
8:54 PM 42.1 °F 38.4 °F 30.0 °F 62% 29.94 in 10.0 mi South 5.8 mph - N/A   Mostly Cloudy
9:54 PM 43.0 °F 38.8 °F 30.9 °F 62% 29.94 in 10.0 mi South 6.9 mph - N/A   Overcast
10:54 PM 44.1 °F 40.1 °F 30.0 °F 58% 29.95 in 10.0 mi South 6.9 mph - N/A   Overcast
11:54 PM 45.0 °F 41.2 °F 30.0 °F 56% 29.94 in 10.0 mi South 6.9 mph - N/A   Overcast